This is the latest recevied weather packets stored in our database for station/object N9OJR. If no packets are shown the sender has not sent any weather packets the latest 10 day(s).
| Time | Temp. | Humidity | Pressure | Rain* | Wind** | Luminosity | Snow |
|---|---|---|---|---|---|---|---|
| 1777935000 | 21.67° C | 57% | 1001.2 hPa | 0 mm | - | 124 W/m² | - |
| 1777934696 | 21.67° C | 57% | 1001.2 hPa | 0 mm | - | 142 W/m² | - |
| 1777934394 | 21.67° C | 58% | 1001.5 hPa | 0 mm | - | 87 W/m² | - |
| 1777934090 | 21.11° C | 58% | 1001.6 hPa | 0 mm | - | 166 W/m² | - |
| 1777933786 | 21.11° C | 57% | 1001.6 hPa | 0 mm | - | 88 W/m² | - |
| 1777933484 | 21.67° C | 58% | 1001.5 hPa | 0 mm | - | 90 W/m² | - |
| 1777933181 | 21.67° C | 56% | 1001.4 hPa | 0 mm | - | 108 W/m² | - |
| 1777932878 | 21.67° C | 55% | 1001.8 hPa | 0 mm | - | 135 W/m² | - |
| 1777932575 | 22.22° C | 57% | 1001.8 hPa | 0 mm | - | 118 W/m² | - |
| 1777932271 | 22.22° C | 55% | 1001.8 hPa | 0 mm | - | 154 W/m² | - |
| 1777931968 | 22.22° C | 57% | 1001.7 hPa | 0 mm | - | 190 W/m² | - |
| 1777931665 | 21.67° C | 59% | 1001.7 hPa | 0 mm | - | 288 W/m² | - |
| 1777931362 | 21.67° C | 60% | 1001.4 hPa | 0 mm | - | 65 W/m² | - |
| 1777931058 | 21.67° C | 58% | 1001.7 hPa | 0 mm | - | 64 W/m² | - |
| 1777930755 | 21.67° C | 59% | 1001.5 hPa | 0 mm | - | 74 W/m² | - |
| 1777930451 | 22.22° C | 58% | 1001.8 hPa | 0 mm | - | 96 W/m² | - |
| 1777930149 | 22.78° C | 56% | 1001.6 hPa | 0 mm | - | 225 W/m² | - |
| 1777929844 | 22.22° C | 57% | 1001.5 hPa | 0 mm | - | 291 W/m² | - |
| 1777929542 | 22.78° C | 57% | 1001.6 hPa | 0 mm | - | 407 W/m² | - |
| 1777929238 | 22.78° C | 58% | 1001.4 hPa | 0 mm | - | 396 W/m² | - |
| 1777928935 | 21.67° C | 58% | 1001.7 hPa | 0 mm | - | 469 W/m² | - |
| 1777928632 | 21.67° C | 58% | 1001.6 hPa | 0 mm | - | 177 W/m² | - |
| 1777928329 | 21.67° C | 59% | 1001.9 hPa | 0 mm | - | 183 W/m² | - |
| 1777928027 | 21.67° C | 59% | 1001.8 hPa | 0 mm | - | 159 W/m² | - |
| 1777927725 | 22.22° C | 59% | 1001.8 hPa | 0 mm | - | 131 W/m² | - |
* Rain latest hour (hover to see other rain measurements)
** Current wind speed in m/s (hover to see current wind gust speed)